Regional Weather Roundup
Issued by NWS Charleston, SC

Current Version | Previous Version | Graphics & Text | Print | Product List | Glossary On
Versions: 1 2 3 4 5 6 7 8 9 10 11 12 13 14 15 16 17 18 19 20 21 22 23 24 25 26 27 28 29 30 31 32 33 34 35 36 37 38 39 40 41 42 43 44 45 46 47 48 49 50
000
ASUS42 KCHS 020212
RWRCHS

REGIONAL WEATHER ROUNDUP
NATIONAL WEATHER SERVICE CHARLESTON SC
1000 PM EDT TUE SEP 01 2015

NOTE: "FAIR" INDICATES FEW OR NO CLOUDS BELOW 12,000 FEET WITH NO
SIGNIFICANT WEATHER AND/OR OBSTRUCTIONS TO VISIBILITY.

NOT ALL STATIONS ARE QUALITY CONTROLLED BY THE NATIONAL
WEATHER SERVICE. USE DATA WITH CAUTION...ESPECIALLY
DEWPOINT OBSERVATIONS.

SCZ027-030-031-034>040-042>050-020300-
...SOUTHEAST SOUTH CAROLINA...

CITY           SKY/WX    TMP DP  RH WIND       PRES   REMARKS
N CHARLESTON   MOCLDY    80  74  81 S5        30.09R
WATERFRONT PRK   N/A     82  77  84 S6        30.05R HX  90
MOUNT PLEASANT LGT RAIN  79  75  89 CALM      30.09R
JOHNS ISLAND   FAIR      81  77  89 CALM      30.08S
PINOPOLIS        N/A     82  75  78 VRB2      30.01R
MONCKS CORNER  FAIR      77  73  88 CALM      30.08S
SUMMERVILLE    FAIR      77  77 100 CALM      30.10R
BEAUFORT MCAS  CLOUDY    80  77  90 S3        30.09R
BEAUFORT ARPT  MOCLDY    79  77  94 CALM      30.09R
HILTON HEAD IS CLOUDY    79  75  89 CALM      30.10R
WALTERBORO     MOCLDY    79  73  83 CALM      30.10R
ALLENDALE      FAIR      79  73  83 CALM      30.07S

...SOUTHERN MIDLANDS AND PEE DEE...

CITY           SKY/WX    TMP DP  RH WIND       PRES   REMARKS
GEORGETOWN     NOT AVBL
KINGSTREE      NOT AVBL
ORANGEBURG     MOCLDY    77  72  84 S5        30.09R
BARNWELL       FAIR      81  73  78 CALM      30.09R
AIKEN          FAIR      75  66  73 CALM      30.12S
MANNING        FAIR      79  72  78 S5        30.09R
COLUMBIA       PTCLDY    80  70  71 CALM      30.07S
SUMTER         PTCLDY    80  70  71 S3        30.06R
FLORENCE       PTCLDY    79  72  79 S5        30.07R
MYRTLE BEACH   CLEAR     81  70  69 CALM      30.10R
N MYRTLE BEACH PTCLDY    79  72  79 SW6       30.08R

$$

GAZ063-065-086>088-099>101-113>116-118-119-134>141-150-020300-
...SOUTHEAST GEORGIA...

CITY           SKY/WX    TMP DP  RH WIND       PRES   REMARKS
SAVANNAH ARPT  CLOUDY    80  74  81 SE6       30.09R
HUNTER AAF     CLOUDY    80  80 100 SE2       30.07R
FORT STEWART   CLOUDY    78  75  90 CALM      30.07R
STATESBORO     MOCLDY    79  79 100 SE3       30.08S
SYLVANIA       CLOUDY    80  77  93 CALM      30.09S
CLAXTON        NOT AVBL

...CSRA...CENTRAL AND FAR SOUTHEAST GEORGIA...

CITY           SKY/WX    TMP DP  RH WIND       PRES   REMARKS
THOMSON        CLEAR     75  74  98 CALM      30.13R
AUGUSTA-BUSH   CLEAR     74  72  93 CALM      30.07R
AUGUSTA-DANIEL CLEAR     82  69  64 CALM      30.09R
SWAINSBORO     CLOUDY    82  72  69 CALM      30.08S
VIDALIA        CLOUDY    79  73  83 SE3       30.08S
EASTMAN        MOCLDY    77  77 100 CALM      30.11R
HAZLEHURST     CLOUDY    81  76  84 SE3       30.07R
ALMA           MOCLDY    77  75  93 CALM      30.08R
WAYCROSS       MOCLDY    80  79  97 CALM      30.08R
JESUP          FAIR      81  79  94 CALM      30.09R
BAXLEY         FAIR      81  77  89 CALM      30.08R
BRUNSWICK      CLOUDY    77  75  94 CALM      30.09R
SAINT SIMONS   CLOUDY    78  76  93 CALM      30.08R

$$

SCZ027-028-034-036>038-045-046-048>050-GAZ119-141-020300-
...LAKE AND SUPPLEMENTAL COASTAL OBSERVATIONS...

STATION/POSITION TIME  TEMP    WIND        PRES    WAVE   SWELL
                       AIR SEA DIR/SP/G            HT/PER HT/PER/DIR
                 (UTC) (F)     (DEG/KT/KT) (MB)    (FT/S) (FT/S/D)
UPR LAKE MARION  NOT AVBL
WINYAH BAY       NOT AVBL
LAKE MURRAY      0100   81      CALM  /  1 1017.9R
ACE BASIN NERRS  NOT AVBL
FORT PULASKI     0100   79 83  120/  4/  6 1018.9R
SAPELO ISLAND    0100   78        CALM     1018.0S

$$

ANZ835-935-AMZ111-154-330-350-352-354-370-450-454-472-020300-
...C-MAN AND BUOY OBSERVATIONS...

STATION/POSITION TIME  TEMP    WIND        PRES    WAVE   SWELL
                       AIR SEA DIR/SP/G            HT/PER HT/PER/DIR
                 (UTC) (F)     (DEG/KT/KT) (MB)    (FT/S) (FT/S/D)
BUOY 41004       0150   82 83  140/  6/  8 1018.5R   2/ 7   2/ 7
BUOY 41008       0150   81 84  130/  4/  6 1018.7R   2/ 7   2/110/ 7
FOLLY BEACH CMAN 0100   82     170/  9/ 10 1018.7R
CAPERS NEARSHORE 0108   82     180/ 10/ 12 1018.5R
FRIPP NEARSHORE  NOT AVBL


STATION/POSITION TIME  TEMP    WIND        PRES    WAVE   SWELL
                       AIR SEA DIR/SP/G            HT/PER HT/PER/DIR
                 (UTC) (F)     (DEG/KT/KT) (MB)    (FT/S) (FT/S/D)
5E ST. MARYS GA  0121      86                N/A     2/ 6
FRYING PAN BUOY  0150   81 82  200/  6/  8 1019.1R   1/10   2/ 70/10
BUOY 41025       0150   80 84  310/  4/  6 1018.2R   2/ 9   2/ 80/ 9
CAPE LOOKOUT NC  0100   79     260/  5/  7 1017.7R
BUOY 41002       0150   84 85  260/  6/  8 1018.8R   3/ 5   3/240/ 5
BUOY 41010       0120   85 87  160/  2/  4 1019.0R
ST AUGUSTINE FL  0200   82 84  190/  5/  6 1019.3R


$$



USA.gov is the U.S. government's official web portal to all federal, state and local government web resources and services.